Location: Aalen
(48.8330°N, 10.1000°E)
Time: 18:30:12
(UTC+02:00)

S-56A Canister/Altair - Pass Details

Date: 07 August 2021
Orbit: 632 x 2500 km, 38.9° (Epoch: 19 September)

Event Time Altitude Azimuth Distance (km) Brightness Sun altitude
Rises 22:09:03 0° 277° (W) 6,177 13.1 -11.8°
Reaches altitude 10° 22:18:26 10° 247° (WSW) 5,080 12.0 -12.9°
Maximum altitude 22:21:02 11° 236° (WSW) 4,953 11.8 -13.2°
Drops below altitude 10° 22:23:34 10° 226° (SW) 4,923 11.6 -13.5°
Sets 22:32:01 0° 194° (SSW) 5,503 11.6 -14.5°
